Home   Weather   Manama   Past weeks
Flag for Bahrain

Past Weather in Manama, Bahrain — Yesterday and Last 2 Weeks

Now
66 °F

Sunny.


Feels Like: 66 °F
Forecast: 74 / 64 °F
Wind: 10 mph from Northwest

Location: Bahrain International Airport

Current Time: Mar 19, 2019 at 7:02:17 am

Latest Report: Mar 19, 2019 at 6:30 am


Visibility: 10 mi

Pressure: 30.07 "Hg

Humidity: 64%

Dew Point: 54 °F

Location of ManamaLocation

Past Weather in Manama — Graph

°F

Manama Temperature Yesterday

Maximum temperature yesterday: 75 °F (at 11:30 am)
Minimum temperature yesterday: 64 °F (at 6:00 am)
Average temperature yesterday: 70 °F

High & Low Weather Summary for the Past Weeks

 TemperatureHumidityPressure
High81 °F (Mar 15, 12:00 pm)88% (Mar 6, 9:30 pm)30.15 "Hg (Mar 6, 9:30 pm)
Low59 °F (Mar 5, 5:30 am)13% (Mar 6, 12:30 pm)29.74 "Hg (Mar 17, 2:30 am)
Average69 °F59%30.00 "Hg
* Reported Mar 4 6:00 am — Mar 19 6:00 am, Manama. Weather by CustomWeather, © 2019

Note: Actual official high and low records may vary slightly from our data, if they occured in-between our weather recording intervals... More about our weather records

Advertising

Manama Weather History for the Previous 24 Hours

Scroll right to see more
 ConditionsComfort  
Time TempWeatherWind HumidityBarometerVisibility
6:00 am
Tue, Mar 19
66 °FSunny.13 mph56%30.07 "Hg10 mi
5:30 am66 °FClear.12 mph56%30.07 "Hg10 mi
5:00 am66 °FClear.12 mph56%30.07 "Hg10 mi
4:30 am66 °FClear.9 mph56%30.07 "Hg10 mi
4:00 am66 °FClear.9 mph56%30.04 "Hg10 mi
3:30 am66 °FClear.9 mph60%30.07 "Hg10 mi
3:00 am66 °FClear.8 mph60%30.04 "Hg10 mi
2:30 am66 °FClear.8 mph56%30.07 "Hg10 mi
2:00 am66 °FClear.8 mph56%30.07 "Hg10 mi
1:30 am66 °FClear.7 mph56%30.07 "Hg10 mi
1:00 am66 °FClear.7 mph60%30.07 "Hg10 mi
12:30 am68 °FClear.7 mph53%30.07 "Hg10 mi
12:00 am68 °FClear.7 mph56%30.07 "Hg10 mi
11:30 pm
Mon, Mar 18
68 °FClear.8 mph56%30.09 "Hg10 mi
11:00 pm68 °FClear.7 mph64%30.09 "Hg10 mi
10:30 pm68 °FClear.3 mph60%30.09 "Hg10 mi
10:00 pm68 °FClear.3 mph60%30.09 "Hg10 mi
9:30 pm68 °FClear.2 mph56%30.09 "Hg10 mi
9:00 pm68 °FClear.2 mph56%30.09 "Hg10 mi
8:30 pm68 °FClear.2 mph56%30.09 "Hg10 mi
8:00 pm70 °FClear.3 mph53%30.07 "Hg10 mi
7:30 pm70 °FPassing clouds.5 mph53%30.07 "HgN/A
7:00 pm70 °FPassing clouds.6 mph50%30.07 "HgN/A
6:30 pm70 °FPassing clouds.7 mph50%30.07 "HgN/A
6:00 pm70 °FPassing clouds.8 mph50%30.04 "HgN/A
5:30 pm72 °FSunny.8 mph44%30.04 "Hg10 mi
5:00 pm72 °FSunny.10 mph44%30.04 "Hg10 mi
4:30 pm73 °FSunny.12 mph38%30.04 "Hg10 mi
4:00 pm73 °FSunny.12 mph31%30.04 "Hg10 mi
3:30 pm73 °FSunny.10 mph38%30.04 "Hg10 mi
3:00 pm75 °FPassing clouds.10 mph36%30.04 "HgN/A
2:30 pm75 °FSunny.12 mph29%30.04 "Hg10 mi
2:00 pm75 °FSunny.14 mph29%30.04 "Hg10 mi
1:30 pm75 °FSunny.13 mph27%30.07 "Hg10 mi
1:00 pm75 °FSunny.13 mph27%30.07 "Hg10 mi
12:30 pm75 °FSunny.13 mph29%30.07 "Hg10 mi
12:00 pm75 °FSunny.12 mph34%30.09 "Hg10 mi
11:30 am75 °FSunny.10 mph29%30.09 "Hg5 mi
11:00 am73 °FSunny.12 mph31%30.09 "Hg5 mi
10:30 am73 °FSunny.10 mph36%30.09 "Hg4 mi
10:00 am73 °FSunny.12 mph33%30.09 "Hg3 mi
9:30 am72 °FSunny.13 mph41%30.09 "Hg3 mi
9:00 am70 °FSunny.13 mph46%30.09 "Hg3 mi
8:30 am70 °FSunny.13 mph50%30.07 "Hg3 mi
8:00 am68 °FSunny.12 mph56%30.07 "Hg3 mi
7:30 am68 °FSunny.8 mph53%30.07 "Hg4 mi
7:00 am68 °FSunny.9 mph53%30.04 "Hg4 mi
Weather by CustomWeather, © 2019

See weather overview